Regional Weather Roundup
Issued by NWS

Home | Current Version | Previous Version | Graphics & Text | Print | Product List | Glossary On
Versions: 1 2 3 4 5 6 7 8 9 10 11 12 13 14 15 16 17 18 19 20 21 22 23 24 25 26 27 28 29 30 31 32 33 34 35 36 37 38 39 40 41 42 43 44 45 46 47 48 49 50
000
ASUS44 KMEG 190900
RWRTN
TENNESSEE HOURLY STATE WEATHER ROUNDUP
NATIONAL WEATHER SERVICE MEMPHIS TN
400 AM CDT THU OCT 19 2017

TNZ002-004-019-021-049-052-054-088>092-191000-
WEST TENNESSEE

CITY           SKY/WX    TMP DP  RH WIND       PRES   REMARKS
MEMPHIS INTL   CLEAR     55  47  74 S8        30.19F
NWS MEMPHIS      N/A     49 N/A N/A MISG        N/A
JACKSON        PTCLDY    44  43  96 CALM      30.23R
$$

TNZ008-025-027-028-033-062-065-066-191000-
NORTH MIDDLE TENNESSEE

CITY           SKY/WX    TMP DP  RH WIND       PRES   REMARKS
NASHVILLE      PTCLDY    48  44  86 CALM      30.24S
CLARKSVILLE    FOG       42  40  92 SE3       30.23S VSB 3/4
SMYRNA         CLEAR     42  42 100 S3        30.25F
CROSSVILLE     CLOUDY    45  41  86 CALM      30.27F
$$

TNZ061-075-076-078-094-096-097-191000-
SOUTH MIDDLE TENNESSEE

CITY           SKY/WX    TMP DP  RH WIND       PRES   REMARKS
$$

TNZ017-018-042-046-047-191000-
NORTHEAST TENNESSEE

CITY           SKY/WX    TMP DP  RH WIND       PRES   REMARKS
TRI CITIES     CLEAR     41  41 100 CALM      30.30R
$$

TNZ012-013-036-069-073-074-191000-
CENTRAL EAST TENNESSEE

CITY           SKY/WX    TMP DP  RH WIND       PRES   REMARKS
KNOXVILLE      CLEAR     47  47 100 CALM      30.28R
OAK RIDGE      CLEAR     44  44 100 CALM      30.30R
$$

TNZ083-085-099-191000-
SOUTHEAST TENNESSEE

CITY           SKY/WX    TMP DP  RH WIND       PRES   REMARKS
CHATTANOOGA    CLEAR     46  44  93 CALM      30.28F
$$

SKY/WX REPORTED AS FAIR MEANS FEW OR NO CLOUDS BELOW
12 THOUSAND FEET.





USA.gov is the U.S. government's official web portal to all federal, state and local government web resources and services.